Location: Mahannah Oil Field
(37.4664°N, 96.6003°W)
Time: 10:51:03
(UTC+00:00)

Transit 2A Rocket - Pass Details

Date: 24 January 2021
Orbit: 594 x 909 km, 66.7° (Epoch: 26 February)

Event Time Altitude Azimuth Distance (km) Brightness Sun altitude
Rises 19:15:04 0° 237° (WSW) 3,359 8.9 32.9°
Reaches altitude 10° 19:17:58 10° 250° (WSW) 2,376 8.1 32.8°
Maximum altitude 19:22:30 26° 306° (NW) 1,452 6.5 32.6°
Drops below altitude 10° 19:26:45 10° 3° (N) 2,207 7.0 32.4°
Sets 19:29:21 0° 17° (NNE) 3,074 7.6 32.3°
